Change the Weather History Date:

Wednesday, July 24, 2013

  Actual Average Record
Temperature  
Mean Temperature 79 °F 81 °F  
Max Temperature 86 °F 91 °F 99 °F (1893)
Min Temperature 72 °F 72 °F 65 °F (1965)
Degree Days  
Heating Degree Days 0 0  
Month to date heating degree days 0 0  
Since 1 June heating degree days 0 0  
Since 1 July heating degree days 0 0  
Cooling Degree Days 14 16  
Month to date cooling degree days 376 384  
Year to date cooling degree days 1396 1333  
Since 1 June cooling degree days 864 823  
Growing Degree Days 28 (Base 50)    
Moisture  
Dew Point 73 °F    
Average Humidity 82    
Maximum Humidity 94    
Minimum Humidity 70    
Precipitation  
Precipitation 0.41 in 0.18 in 1.95 in (1916)
Month to date precipitation 13.10 4.79  
Year to date precipitation 30.35 27.90  
Snow  
Snow 0.00 in 0.00 in 0.00 in ()
Month to date snowfall 0.0 0.0  
Since 1 June snowfall 0.0 0.0  
Since 1 July snowfall 0.0 0.0  
Snow Depth 0.00 in    
Sea Level Pressure  
Sea Level Pressure 29.92 in    
Wind  
Wind Speed 6 mph (WSW)    
Max Wind Speed 17 mph    
Max Gust Speed 23 mph    
Visibility 7 miles    
Events Rain    
T = Trace of Precipitation, MM = Missing Value Source: NWS Daily Summary

Daily Weather History Graph

Daily Weather History Graph

Search for Another Location

Airport or City:

Trip Planner

Search our weather history database for the weather conditions in past years. The results will help you decide how hot, cold, wet, or windy it might be!

Date:

Astronomy

Jul. 24, 2013 Rise Set
Actual Time 6:44 AM EDT 8:26 PM EDT
Civil Twilight 6:17 AM EDT 8:53 PM EDT
Nautical Twilight 5:46 AM EDT 9:24 PM EDT
Astronomical Twilight 5:12 AM EDT 9:57 PM EDT
Moon 9:49 PM EDT (7/24) 8:48 AM EDT (7/24)
Length of Visible Light 14h 35m
Length of Day
13h 42m
Waning Gibbous, 95% of the Moon is Illuminated
Jul 24
Waning Gibbous
Jul 29
Last Quarter
Aug 6
New
Aug 14
First Quarter
Aug 20
Full

Hourly Weather History & Observations

Time (EDT) Temp. Heat Index Dew Point Humidity Pressure Visibility Wind Dir Wind Speed Gust Speed Precip Events Conditions
12:04 AM 77.0 °F - 73.4 °F 89% 29.94 in 8.0 mi SSW 5.8 mph - N/A   Mostly Cloudy
12:53 AM 75.9 °F - 73.9 °F 94% 29.91 in 6.0 mi SSW 4.6 mph - N/A   Overcast
1:53 AM 75.9 °F - 73.9 °F 94% 29.90 in 6.0 mi SW 5.8 mph - N/A   Overcast
2:07 AM 77.0 °F - 73.4 °F 89% 29.90 in 6.0 mi SW 8.1 mph - N/A   Overcast
2:53 AM 77.0 °F - 75.0 °F 94% 29.90 in 6.0 mi West 6.9 mph - N/A   Mostly Cloudy
2:58 AM 77.0 °F - 73.4 °F 89% 29.90 in 6.0 mi WSW 6.9 mph - N/A   Scattered Clouds
3:53 AM 75.9 °F - 73.0 °F 91% 29.89 in 7.0 mi WSW 5.8 mph - N/A   Clear
4:53 AM 73.9 °F - 71.1 °F 91% 29.91 in 10.0 mi West 4.6 mph - N/A   Clear
5:53 AM 73.0 °F - 70.0 °F 90% 29.91 in 10.0 mi WNW 3.5 mph - N/A   Clear
6:53 AM 72.0 °F - 70.0 °F 93% 29.91 in 8.0 mi Calm Calm - N/A   Clear
7:53 AM 75.0 °F - 71.1 °F 87% 29.91 in 10.0 mi SW 4.6 mph - N/A   Clear
8:53 AM 78.1 °F - 71.1 °F 79% 29.94 in 10.0 mi WSW 6.9 mph - N/A   Mostly Cloudy
9:23 AM 75.2 °F - 69.8 °F 83% 29.97 in 10.0 mi NNW 10.4 mph - N/A   Overcast
9:39 AM 73.4 °F - 69.8 °F 88% 29.97 in 1.5 mi NW 11.5 mph - 0.01 in Rain Heavy Rain
9:46 AM 73.4 °F - 69.8 °F 88% 29.97 in 2.0 mi NW 8.1 mph - 0.10 in Rain Rain
9:53 AM 73.0 °F - 70.0 °F 90% 29.97 in 2.0 mi West 6.9 mph - 0.11 in Rain Rain
10:00 AM 71.6 °F - 69.8 °F 94% 29.97 in 1.0 mi West 6.9 mph - 0.04 in Rain Heavy Rain
10:26 AM 73.4 °F - 69.8 °F 88% 29.96 in 3.0 mi NW 6.9 mph - 0.17 in Rain Rain
10:43 AM 73.4 °F - 69.8 °F 88% 29.96 in 1.8 mi WNW 6.9 mph - 0.21 in Rain Rain
10:53 AM 73.0 °F - 71.1 °F 93% 29.95 in 4.0 mi West 9.2 mph - 0.23 in Rain Light Rain
11:00 AM 73.4 °F - 69.8 °F 88% 29.96 in 2.5 mi WSW 9.2 mph - 0.00 in Rain Light Rain
11:39 AM 73.4 °F - 71.6 °F 94% 29.96 in 6.0 mi WSW 11.5 mph - 0.05 in Rain Light Rain
11:53 AM 73.0 °F - 71.1 °F 93% 29.95 in 8.0 mi West 6.9 mph - 0.05 in Rain Light Rain
12:31 PM 75.2 °F - 71.6 °F 89% 29.95 in 10.0 mi SW 6.9 mph - 0.00 in   Mostly Cloudy
12:38 PM 75.2 °F - 71.6 °F 89% 29.95 in 10.0 mi SW 8.1 mph - 0.00 in   Mostly Cloudy
12:53 PM 75.9 °F - 72.0 °F 87% 29.94 in 10.0 mi WSW 4.6 mph - 0.00 in   Overcast
1:00 PM 78.8 °F - 73.4 °F 83% 29.94 in 10.0 mi West 6.9 mph - N/A   Mostly Cloudy
1:17 PM 78.8 °F - 73.4 °F 83% 29.94 in 10.0 mi WSW 8.1 mph - N/A   Mostly Cloudy
1:53 PM 81.0 °F 86.2 °F 73.9 °F 79% 29.92 in 10.0 mi WSW 10.4 mph - N/A   Mostly Cloudy
2:53 PM 84.0 °F 91.9 °F 75.0 °F 74% 29.90 in 10.0 mi West 11.5 mph - N/A   Mostly Cloudy
3:53 PM 86.0 °F 96.0 °F 75.9 °F 72% 29.87 in 10.0 mi WSW 8.1 mph - N/A   Mostly Cloudy
4:01 PM 84.2 °F 92.3 °F 75.2 °F 74% 29.88 in 10.0 mi WSW 11.5 mph - N/A   Overcast
4:12 PM 82.4 °F 89.5 °F 75.2 °F 79% 29.88 in 2.5 mi WSW 9.2 mph - 0.02 in Rain Heavy Rain
4:22 PM 82.4 °F 90.9 °F 77.0 °F 84% 29.88 in 8.0 mi WSW 5.8 mph - 0.02 in Rain Light Rain
4:53 PM 80.1 °F 85.1 °F 75.0 °F 85% 29.87 in 8.0 mi West 8.1 mph - 0.02 in Rain Light Rain
5:53 PM 79.0 °F - 75.0 °F 88% 29.87 in 6.0 mi West 5.8 mph - 0.00 in Rain Light Rain
6:53 PM 79.0 °F - 75.0 °F 88% 29.88 in 8.0 mi West 5.8 mph - 0.00 in Rain Light Rain
7:53 PM 79.0 °F - 73.9 °F 84% 29.88 in 9.0 mi West 6.9 mph - 0.00 in   Clear
8:53 PM 79.0 °F - 73.9 °F 84% 29.88 in 9.0 mi WSW 6.9 mph - N/A   Clear
9:53 PM 78.1 °F - 75.0 °F 90% 29.88 in 7.0 mi Calm Calm - N/A   Clear
10:53 PM 79.0 °F - 75.0 °F 88% 29.89 in 6.0 mi WSW 6.9 mph - N/A   Clear
11:53 PM 78.1 °F - 75.0 °F 90% 29.88 in 6.0 mi SW 4.6 mph - N/A   Clear